Tracking 29892 objects as of 21-Nov-2024
HD Live streaming from Space Station
objects crossing your sky now

FENGYUN 1C DEB

Track FENGYUN 1C DEB now!
10-day predictions


NORAD ID: 31742
Int'l Code: 1999-025CER
Perigee: 717.3 km
Apogee: 831.3 km
Inclination: 99.0 °
Period: 100.2 minutes
Semi major axis: 7145 km
RCS: 0.0202 m2 (small)
Launch date: May 10, 1999
Source: People's Republic of China (PRC)
Launch site: Taiyaun Space Center, China (TSC)

Note: This is SATELLITE DEBRIS
Your satellite tracking list
Your tracking list is empty




NASA's NSSDC Master Catalog

Two Line Element Set (TLE):
1 31742U 99025CER 24325.01452976  .00003514  00000-0  11491-2 0  9993
2 31742  98.9587 162.5386 0079758  32.9628 327.6494 14.37379434910743
Source of the keplerian elements: AFSPC